Regional Weather Roundup
Issued by NWS

Home | Current Version | Previous Version | Graphics & Text | Print | Product List | Glossary On
Versions: 1 2 3 4 5 6 7 8 9 10 11 12 13 14 15 16 17 18 19 20 21 22 23 24 25 26 27 28
000
ASUS45 KCYS 241710
RWRWY

WYOMING REGIONAL WEATHER ROUNDUP
NATIONAL WEATHER SERVICE CHEYENNE WY
1100 AM MDT WED AUG 24 2016

NOTE:  "FAIR" INDICATES FEW OR NO CLOUDS BELOW 12,000 FEET
WITH NO SIGNIFICANT WEATHER AND/OR OBSTRUCTIONS TO VISIBILITY.

WYZ001-241800-
YELLOWSTONE NATIONAL PARK

CITY           SKY/WX    TMP DP  RH WIND       PRES   REMARKS
LK YELLOWSTONE   N/A     54  32  43 E5        30.35S
W YELLOWSTONE  NOT AVBL

$$
WYZ002>013-054>058-071-098>099-241800-
NORTHERN WYOMING

CITY           SKY/WX    TMP DP  RH WIND       PRES   REMARKS
JACKSON        SUNNY     54  25  32 CALM      30.27F SMOKE
CODY           FAIR      57  43  58 NE12      30.30F
GREYBULL       FAIR      64  39  39 VRB3      30.24S
WORLAND        FAIR      65  39  38 NW10      30.24F
SHERIDAN       FAIR      66  44  45 NW15G21   30.26S
BUFFALO        FAIR      61  42  49 NW7       30.29S
GILLETTE       FAIR      61  44  53 N7        30.26S
HULETT         FAIR      61  43  51 NW8       30.26F
NEWCASTLE      FAIR      63  37  39 NW15G22   30.25S

$$
WYZ014>020-022>026-101>103-241800-
CENTRAL WYOMING

CITY           SKY/WX    TMP DP  RH WIND       PRES   REMARKS
BIG PINEY      FAIR      59  22  24 SE10      30.29F
PINEDALE       FAIR      61  21  21 CALM      30.29F
DUBOIS         FAIR      57  28  33 SE12G17   30.31F
LANDER         FAIR      61  36  39 VRB5      30.27F
RIVERTON       FAIR      60  37  42 E7        30.28F
CASPER         FAIR      64  38  38 E10G18    30.27F
DOUGLAS        FAIR      65  36  34 VRB3      30.27F

$$
WYZ021-027>030-104>119-241800-
SOUTHERN WYOMING

CITY           SKY/WX    TMP DP  RH WIND       PRES   REMARKS
EVANSTON       FAIR      69  13  11 SW18G25   30.27S
FORT BRIDGER   FAIR      68  22  17 N6        30.29F
ROCK SPRINGS   FAIR      64  25  22 NE6       30.27S
DIXON          FAIR      69  39  34 W3        30.26F
RAWLINS        FAIR      63  30  28 E6        30.28S
SARATOGA       FAIR      64  37  36 CALM      30.28F
LARAMIE        FAIR      64  37  36 S13       30.29F
CHEYENNE       FAIR      59  42  53 SE9       30.30R
TORRINGTON     FAIR      66  40  38 SE15      30.22S
PINE BLUFFS    FAIR      63  45  51 S10       30.26R

$$




USA.gov is the U.S. government's official web portal to all federal, state and local government web resources and services.